Location: Brede
(50.9167°N, 0.6000°E)
Time: 23:20:27
(UTC+00:00)

Altair - All Passes

Search period start: 25 November 2020 00:00
Search period end: 05 December 2020 00:00
Orbit: 1502 x 1682 km, 47.2° (Epoch: 25 November)

Date Brightness Start Highest point End Pass type
(mag) Time Alt. Az. Time Alt. Az. Time Alt. Az.
25 Nov - 00:24:15 10° W 00:33:24 72° S 00:42:34 10° E visible
25 Nov - 02:28:41 10° W 02:37:29 54° SSW 02:46:27 10° SE visible
25 Nov - 04:33:48 10° W 04:40:41 24° SW 04:47:41 10° S visible
25 Nov - 19:54:18 10° S 20:01:04 23° SE 20:07:44 10° E visible
25 Nov - 21:55:19 10° SW 22:04:11 53° SSE 22:12:59 10° E visible
25 Nov - 23:59:07 10° W 00:08:15 72° S 00:17:25 10° E night (unlit)
26 Nov - 02:03:31 10° W 02:12:23 56° SSW 02:21:23 10° SE visible
26 Nov - 04:08:31 10° W 04:15:39 26° SW 04:22:55 10° S visible
26 Nov - 19:29:36 10° S 19:36:03 21° SE 19:42:25 10° E visible
26 Nov - 21:30:16 10° SW 21:39:06 51° SSE 21:47:49 10° E visible
26 Nov - 23:33:58 10° WSW 23:43:07 72° S 23:52:16 10° E night (unlit)
27 Nov - 01:38:22 10° W 01:47:18 58° SSW 01:56:18 10° SE visible
27 Nov - 03:43:16 10° W 03:50:38 28° SW 03:58:06 10° SSE visible
27 Nov - 19:04:58 10° S 19:11:03 20° SE 19:17:03 10° E visible
27 Nov - 21:05:14 10° SW 21:14:00 49° SSE 21:22:40 10° E visible
27 Nov - 23:08:50 10° WSW 23:17:59 71° S 23:27:07 10° E night (unlit)
28 Nov - 01:13:13 10° W 01:22:11 60° SSW 01:31:13 10° ESE visible
28 Nov - 03:18:02 10° W 03:25:36 30° SW 03:33:17 10° SSE visible
28 Nov - 18:40:24 10° SSE 18:46:03 18° SE 18:51:39 10° E visible
28 Nov - 20:40:12 10° SW 20:48:56 46° SSE 20:57:30 10° E visible
28 Nov - 22:43:41 10° WSW 22:52:51 70° S 23:01:58 10° E night (unlit)
29 Nov - 00:48:04 10° W 00:57:04 62° SSW 01:06:07 10° ESE night (unlit)
29 Nov - 02:52:48 10° W 03:00:34 32° SW 03:08:25 10° SSE visible
29 Nov - 18:15:54 10° SSE 18:21:04 16° SE 18:26:10 10° E visible
29 Nov - 20:15:12 10° SW 20:23:51 44° SSE 20:32:21 10° E visible
29 Nov - 22:18:32 10° WSW 22:27:44 70° S 22:36:49 10° E visible
30 Nov - 00:22:55 10° W 00:31:57 64° SSW 00:41:01 10° ESE night (unlit)
30 Nov - 02:27:35 10° W 02:35:31 34° SW 02:43:32 10° SSE visible
30 Nov - 17:51:31 10° SSE 17:56:05 15° SE 18:00:36 10° E visible
30 Nov - 19:50:12 10° SSW 19:58:46 42° SSE 20:07:11 10° E visible
30 Nov - 21:53:24 10° WSW 22:02:35 69° S 22:11:41 10° E visible
30 Nov - 23:57:45 10° W 00:06:50 66° SSW 00:15:54 10° ESE night (unlit)
01 Dec - 02:02:24 10° W 02:10:28 36° SW 02:18:37 10° SSE visible
01 Dec - 04:10:57 10° WSW 04:12:54 11° WSW 04:14:51 10° SW visible
01 Dec - 17:27:17 10° SSE 17:31:06 13° SE 17:34:53 10° E visible
01 Dec - 19:25:13 10° SSW 19:33:42 40° SE 19:42:00 10° E visible
01 Dec - 21:28:15 10° WSW 21:37:28 67° SSE 21:46:32 10° E visible
01 Dec - 23:32:36 10° W 23:41:43 67° SSW 23:50:47 10° ESE night (unlit)
02 Dec - 01:37:12 10° W 01:45:25 39° SW 01:53:41 10° SSE night (unlit)
02 Dec - 03:44:41 10° WSW 03:47:56 12° SW 03:51:12 10° SW visible
02 Dec - 17:03:20 10° SE 17:06:08 12° SE 17:08:54 10° ESE visible
02 Dec - 19:00:16 10° SSW 19:08:38 37° SE 19:16:50 10° E visible
02 Dec - 21:03:07 10° WSW 21:12:20 66° SSE 21:21:24 10° E visible
02 Dec - 23:07:26 10° W 23:16:35 68° S 23:25:40 10° ESE visible
03 Dec - 01:12:01 10° W 01:20:21 41° SSW 01:28:44 10° SSE night (unlit)
03 Dec - 03:18:51 10° W 03:22:58 14° SW 03:27:06 10° SSW night (unlit)
03 Dec - 16:40:21 10° SE 16:41:09 10° ESE 16:41:58 10° ESE visible
03 Dec - 18:35:20 10° SSW 18:43:35 35° SE 18:51:39 10° E visible
03 Dec - 20:38:00 10° WSW 20:47:13 65° SSE 20:56:14 10° E visible
03 Dec - 22:42:17 10° W 22:51:28 69° S 23:00:33 10° ESE visible
04 Dec - 00:46:50 10° W 00:55:18 43° SSW 01:03:46 10° SE night (unlit)
04 Dec - 02:53:13 10° W 02:58:00 15° SW 03:02:48 10° SSW night (unlit)
04 Dec - 18:10:25 10° SSW 18:18:32 33° SE 18:26:27 10° E visible
04 Dec - 20:12:52 10° WSW 20:22:05 63° SSE 20:31:07 10° E visible
04 Dec - 22:17:07 10° W 22:26:19 70° S 22:35:25 10° ESE visible
